Brainerd, MN

5:36 PM CST on November 17, 2017 (GMT -0600)
Brainerd-Crow Wing County Regional

Weather History for KBRD - September, 2011

Change the Weather History Date:

Tuesday, September 20, 2011

  Actual Average Record
Temperature  
Mean Temperature 58 °F 56 °F  
Max Temperature 64 °F 67 °F 91 °F (1984)
Min Temperature 52 °F 45 °F 23 °F (1973)
Degree Days  
Heating Degree Days 6 9  
Month to date heating degree days 120  
Cooling Degree Days 0 1  
Month to date cooling degree days 28  
Growing Degree Days 8 (Base 50)    
Moisture  
Dew Point 46 °F    
Average Humidity 69    
Maximum Humidity 86    
Minimum Humidity 46    
Precipitation  
Precipitation 0.20 in 0.11 in 1.24 in (1972)
Month to date precipitation 2.13  
Snow  
Snow 0.00 in 0.00 in - ()
Month to date snowfall 0.0  
Snow Depth -    
Sea Level Pressure  
Sea Level Pressure 29.65 in    
Wind  
Wind Speed 11 mph (SSW)    
Max Wind Speed 23 mph    
Max Gust Speed 34 mph    
Visibility 8 miles    
Events Rain    
T = Trace of Precipitation, MM = Missing Value Source: NWS Daily Summary

Daily Weather History Graph

Daily Weather History Graph

Search for Another Location

Airport or City:

Trip Planner

Search our weather history database for the weather conditions in past years. The results will help you decide how hot, cold, wet, or windy it might be!

Date:

Astronomy

Sep. 20, 2011 Rise Set
Actual Time 7:00 AM CDT 7:18 PM CDT
Civil Twilight 6:30 AM CDT 7:48 PM CDT
Nautical Twilight 5:54 AM CDT 8:24 PM CDT
Astronomical Twilight 5:18 AM CDT 9:00 PM CDT
Moon No Moon Rise 3:03 PM CDT (9/20)
Length of Visible Light 13h 18m
Length of Day
12h 18m
Waning Gibbous, 48% of the Moon is Illuminated
Sep 20
Waning Gibbous
Sep 27
New
Oct 3
First Quarter
Oct 11
Full
Oct 19
Last Quarter

Hourly Weather History & Observations

Time (CDT) Temp. Dew Point Humidity Pressure Visibility Wind Dir Wind Speed Gust Speed Precip Events Conditions
12:53 AM 55.9 °F 41.0 °F 57% 29.86 in 10.0 mi SSE 5.8 mph - N/A   Overcast
1:53 AM 55.9 °F 39.9 °F 55% 29.85 in 10.0 mi South 6.9 mph - N/A   Clear
2:53 AM 57.0 °F 39.9 °F 53% 29.83 in 10.0 mi South 5.8 mph - N/A   Scattered Clouds
3:53 AM 57.0 °F 39.0 °F 51% 29.80 in 10.0 mi SSE 8.1 mph - N/A   Clear
4:53 AM 59.0 °F 39.0 °F 48% 29.78 in 10.0 mi South 10.4 mph 19.6 mph N/A   Clear
5:53 AM 60.1 °F 39.0 °F 46% 29.74 in 10.0 mi South 11.5 mph 24.2 mph N/A   Scattered Clouds
6:53 AM 59.0 °F 44.1 °F 58% 29.75 in 10.0 mi South 15.0 mph 24.2 mph 0.00 in   Overcast
7:53 AM 60.1 °F 46.9 °F 62% 29.70 in 10.0 mi SSE 13.8 mph 25.3 mph 0.00 in   Mostly Cloudy
8:53 AM 63.0 °F 48.0 °F 58% 29.69 in 10.0 mi South 23.0 mph 32.2 mph N/A   Mostly Cloudy
9:53 AM 59.0 °F 52.0 °F 78% 29.65 in 10.0 mi SSE 17.3 mph 26.5 mph 0.01 in Rain Light Rain
10:43 AM 60.8 °F 51.8 °F 72% 29.65 in 10.0 mi South 18.4 mph 23.0 mph 0.00 in   Mostly Cloudy
10:53 AM 60.1 °F 52.0 °F 75% 29.65 in 10.0 mi South 16.1 mph 24.2 mph 0.00 in   Overcast
11:44 AM 62.6 °F 51.8 °F 68% 29.63 in 10.0 mi SSW 17.3 mph - N/A   Mostly Cloudy
11:53 AM 62.1 °F 52.0 °F 70% 29.64 in 10.0 mi SSW 17.3 mph 25.3 mph N/A   Mostly Cloudy
12:53 PM 63.0 °F 46.9 °F 56% 29.63 in 10.0 mi SW 20.7 mph 26.5 mph N/A   Overcast
1:53 PM 64.0 °F 43.0 °F 46% 29.63 in 10.0 mi SW 21.9 mph 34.5 mph N/A   Mostly Cloudy
2:53 PM 61.0 °F 41.0 °F 48% 29.63 in 10.0 mi SW 20.7 mph 25.3 mph N/A   Overcast
3:53 PM 57.9 °F 44.1 °F 60% 29.64 in 10.0 mi SSW 15.0 mph 21.9 mph 0.00 in Rain Light Rain
5:53 PM 54.0 °F 46.9 °F 77% 29.59 in 4.0 mi SSW 16.1 mph 26.5 mph 0.01 in Rain Light Rain
6:53 PM 54.0 °F 46.9 °F 77% 29.57 in 8.0 mi South 9.2 mph - 0.00 in   Overcast
8:53 PM 54.0 °F 48.0 °F 80% 29.58 in 10.0 mi SSW 10.4 mph - N/A   Overcast
9:19 PM 53.6 °F 48.2 °F 82% 29.58 in 10.0 mi SSW 10.4 mph - 0.00 in   Overcast
9:50 PM 53.6 °F 48.2 °F 82% 29.58 in 2.5 mi SSW 8.1 mph - 0.04 in Rain Rain
9:51 PM 53.6 °F 48.2 °F 82% 29.58 in 3.0 mi SSW 8.1 mph - 0.05 in Rain Rain
9:53 PM 53.1 °F 48.9 °F 86% 29.59 in 3.0 mi SSW 8.1 mph - 0.06 in Rain Rain
10:03 PM 53.6 °F 48.2 °F 82% 29.58 in 2.5 mi SSW 9.2 mph - 0.06 in Rain Rain
10:12 PM 53.6 °F 48.2 °F 82% 29.58 in 4.0 mi SW 9.2 mph - 0.07 in Rain Light Rain
10:24 PM 53.6 °F 48.2 °F 82% 29.58 in 3.0 mi SW 5.8 mph - 0.10 in Rain Rain
10:53 PM 53.1 °F 48.9 °F 86% 29.59 in 5.0 mi WSW 12.7 mph - 0.12 in Rain Light Rain
11:07 PM 53.6 °F 48.2 °F 82% 29.58 in 9.0 mi West 9.2 mph - 0.00 in Rain Light Rain
11:39 PM 53.6 °F 48.2 °F 82% 29.59 in 10.0 mi WSW 9.2 mph - 0.00 in   Overcast
11:53 PM 52.0 °F 48.0 °F 86% 29.60 in 10.0 mi West 5.8 mph - 0.00 in   Overcast